Regional Weather Roundup
Issued by NWS

Home | Current Version | Previous Version | Graphics & Text | Print | Product List | Glossary On
Versions: 1 2 3 4 5 6 7 8 9 10 11 12 13 14 15 16 17 18 19 20 21 22 23 24 25 26 27 28 29 30 31 32 33 34 35 36 37 38 39 40 41 42 43 44 45 46 47 48 49 50
000
ASUS45 KBOU 011007
RWRCO

WEATHER ROUNDUP FOR COLORADO
NATIONAL WEATHER SERVICE DENVER/BOULDER CO
300 AM MST SUN MAR 01 2015

NOTE: "FAIR" INDICATES FEW OR NO CLOUDS BELOW 12000 FEET WITH NO
SIGNIFICANT WEATHER AND/OR OBSTRUCTIONS TO VISIBILITY.

COZ001>005-013-030-031-011100-
...NORTHWEST COLORADO...

CITY           SKY/WX    TMP DP  RH WIND       PRES   REMARKS
CRAIG            N/A     22  19  89 SW7       30.01R FOG     WCI  13
HAYDEN         CLOUDY    19  16  86 W13       29.97S WCI   7
MEEKER         CLOUDY    26  23  88 CALM      29.97R
MOUNT WERNER   NOT AVBL
STEAMBOAT SPGS CLOUDY    22  20  93 CALM      29.96R
WALDEN         CLOUDY    12   9  85 N10       29.93R WCI  -1
$$

COZ006>008-011-011100-
...WEST CENTRAL VALLEYS...

CITY           SKY/WX    TMP DP  RH WIND       PRES   REMARKS
GRAND JUNCTION CLOUDY    28  27  96 CALM      29.98R
MONTROSE       CLOUDY    27  25  92 S7        30.00F WCI  19
EAGLE          MOCLDY    27  27 100 SE3       29.97R
RIFLE          MOCLDY    30  26  85 E3        29.97R
DELTA          PTCLDY    34  32  93 CALM      30.01R
NUCLA          LGT SNOW  32  32 100 CALM      30.04R
$$

COZ017>023-064>068-011100-
...SOUTHWEST COLORADO...

CITY           SKY/WX    TMP DP  RH WIND       PRES   REMARKS
DURANGO        FOG       29  29 100 N5        30.01S VSB 3/4 WCI  24
CORTEZ         PTCLDY    27  26  96 CALM      30.00S
PAGOSA SPRINGS CLOUDY    29  29 100 CALM      30.01F FOG
TELLURIDE      LGT SNOW  26  23  91 CALM      30.02S
WOLF CREEK PAS CLOUDY    16  16 100 SW30G43   29.99S WCI  -4
$$

COZ009-010-012-014-032>034-037-058>063-011100-
...CENTRAL COLORADO...

CITY           SKY/WX    TMP DP  RH WIND       PRES   REMARKS
ASPEN          LGT SNOW  26  24  92 CALM      29.95R FOG
BUENA VISTA    CLOUDY    18  16  93 CALM      29.95S
COPPER MTN     LGT SNOW  18  12  79 W14G22    29.90R WCI   4
BERTHOUD PASS  LGT SNOW   9   3  78 W22G37    29.87R VSB 3/4 WCI -11
COTTONWOOD PAS FLURRIES  23  19  86 S3        29.92S
GUNNISON         N/A     14  12  92 CALM      30.00S VSB 1/2
KREMMLING      LGT SNOW  25  21  86 N6        29.94R WCI  18
LEADVILLE      LGT SNOW  18  15  88 N3        29.92R FOG
SALIDA         PTCLDY    17  13  85 CALM      30.03F
SUNLIGHT       LGT SNOW  21  19  93 CALM        N/A
WILKERSON PASS PTCLDY    14  12  92 SW10G21   29.93R WCI   1
$$

COZ069>075-011100-
...SAN LUIS VALLEY/SANGRE DE CRISTO MOUNTAINS...

CITY           SKY/WX    TMP DP  RH WIND       PRES   REMARKS
ALAMOSA        PTCLDY    14  11  87 NW5       29.99R WCI   6
LA VETA PASS   CLOUDY    23  21  93 MISG      29.93S
SAGUACHE       PTCLDY    18  14  86 NW7       30.01R WCI   8
$$

COZ035-036-038>040-011100-
...NORTHERN COLORADO FRONT RANGE...

CITY           SKY/WX    TMP DP  RH WIND       PRES   REMARKS
DENVER INTL AP PTCLDY     7   3  84 CALM      30.04R
DMNS CITY PARK   N/A     14  10  85 W1        30.05R
AURORA         PTCLDY    11   8  88 SW3       30.03R
FRONT RANGE AP NOT AVBL
ERIE MUNI ARPT CLOUDY    13  12  95 CALM      30.07R FOG
BOULDER MUN AP CLOUDY    19  19 100 CALM      30.06R FOG
CENTENNIAL     PTCLDY     8   4  83 CALM      30.01R
BROOMFIELD     CLOUDY    19  18  93 NW5       30.04R FOG     WCI  13
FORT COLLINS   MOCLDY    18  14  86 N7        30.08R WCI   8
LONGMONT       CLOUDY    21  19  90 N3        30.10R
$$

COZ041-046-047-076>085-087-088-011100-
...PIKES PEAK/PALMER DIVIDE AND SOUTHERN FOOTHILLS...

CITY           SKY/WX    TMP DP  RH WIND       PRES   REMARKS
COLO. SPRINGS  MOCLDY    15  12  88 SE3       29.99F FOG
A. F. ACADEMY  CLOUDY    12   9  88 NW7       29.96S WCI   2
ELLICOTT       NOT AVBL
FALCON         PTCLDY     9   7  91 W5        29.96S FOG     WCI   1
FORT CARSON    PTCLDY    10   7  88 NW3       29.99F
LIMON          FOG        2   1  96 N6        30.03S VSB 1/4 WCI  -9
MONUMENT HILL  PTCLDY     5   3  92 W5        29.94S WCI  -4
TRINIDAD       CLOUDY    16  13  88 CALM      30.02R
$$

COZ042>045-048>051-090-091-011100-
...NORTHEAST COLORADO...

CITY           SKY/WX    TMP DP  RH WIND       PRES   REMARKS
GREELEY ARPT   PTCLDY    18   9  68 N6        30.08R WCI   9
AKRON          CLOUDY    16  14  92 CALM      30.06F
BURLINGTON     CLOUDY    21  14  74 SW6       30.09S WCI  13
WRAY           PTCLDY    16  13  88 CALM      30.13F
STERLING       PTCLDY    18  14  86 N3        30.12S
HOLYOKE        NOT AVBL
FORT MORGAN    PTCLDY    15  13  88 N7        30.09S WCI   6
$$

COZ086-089-092>099-011100-
...SOUTHEAST COLORADO...

CITY           SKY/WX    TMP DP  RH WIND       PRES   REMARKS
PUEBLO         PTCLDY    10   8  92 CALM      30.07S
LA JUNTA       PTCLDY    12   9  87 W6        30.10S WCI   3
LAMAR          PTCLDY    15  14  95 CALM      30.11F
SPRINGFIELD      N/A     16  14  92 N3        30.08F
$$



USA.gov is the U.S. government's official web portal to all federal, state and local government web resources and services.